When you browse on this site, cookies collect data to enhance your experience and personalize the content and advertising you see.
Visit our Privacy Policy to learn more. By continuing to use the site, you agree to this use of cookies and data.
  • In Österreich
  • Länderverzeichnis
  • Für 7 Tage
  • Wassertemperatur
  • Satellitenkarten
  • Wetterkarte
  • News
  • Widgets
  • user-avatar
    Anmelden

    Stündliche Wetter Columbus

    Heute, 12 Dezember, Mittwoch

    Zeit Temperatur Niederschläge Wind Luftdruck Luftfeuchtigkeit
    00:00 -3°C° 0 mm 2 m/S 743 mmHg 85%
    01:00 -3°C° 0 mm 2 m/S 743 mmHg 85%
    02:00 -3°C° 0 mm 2 m/S 743 mmHg 85%
    03:00 -3°C° 0 mm 2 m/S 743 mmHg 86%
    04:00 -3°C° 0 mm 2 m/S 742 mmHg 85%
    05:00 -3°C° 0 mm 2 m/S 742 mmHg 84%
    06:00 -2°C° 0 mm 3 m/S 742 mmHg 84%
    07:00 -2°C° 0 mm 3 m/S 742 mmHg 81%
    08:00 -1°C° 0 mm 3 m/S 741 mmHg 78%
    09:00 -1°C° 0 mm 4 m/S 741 mmHg 74%
    10:00 0°C° 0 mm 4 m/S 741 mmHg 71%
    11:00 +1°C° 0 mm 5 m/S 740 mmHg 68%
    12:00 +2°C° 0 mm 5 m/S 740 mmHg 64%
    13:00 +3°C° 0 mm 4 m/S 739 mmHg 67%
    14:00 +4°C° 0 mm 4 m/S 739 mmHg 70%
    15:00 +4°C° 0 mm 3 m/S 739 mmHg 72%
    16:00 +3°C° 0 mm 3 m/S 739 mmHg 76%
    17:00 +3°C° 0 mm 3 m/S 739 mmHg 81%
    18:00 +2°C° 0 mm 3 m/S 740 mmHg 85%
    19:00 +2°C° 0 mm 3 m/S 740 mmHg 86%
    20:00 +1°C° 0 mm 4 m/S 740 mmHg 88%
    21:00 +1°C° 0 mm 4 m/S 740 mmHg 89%
    22:00 +1°C° 0 mm 4 m/S 740 mmHg 91%
    23:00 +2°C° 0 mm 3 m/S 741 mmHg 92%

    Morgen, 13 Dezember, Donnerstag

    Zeit Temperatur Niederschläge Wind Luftdruck Luftfeuchtigkeit
    00:00 +2°C° 0 mm 3 m/S 741 mmHg 94%
    01:00 +1°C° 0 mm 3 m/S 741 mmHg 94%
    02:00 +2°C° 0 mm 2 m/S 742 mmHg 94%
    03:00 +1°C° 0 mm 2 m/S 742 mmHg 95%
    04:00 +1°C° 0 mm 2 m/S 742 mmHg 95%
    05:00 +2°C° 0 mm 1 m/S 743 mmHg 95%
    06:00 +2°C° 0 mm 1 m/S 743 mmHg 95%
    07:00 +3°C° 0 mm 1 m/S 744 mmHg 94%
    08:00 +3°C° 0 mm 1 m/S 744 mmHg 92%
    09:00 +3°C° 0 mm 2 m/S 745 mmHg 91%
    10:00 +5°C° 0 mm 2 m/S 744 mmHg 88%
    11:00 +6°C° 0 mm 2 m/S 744 mmHg 85%
    12:00 +7°C° 0 mm 2 m/S 744 mmHg 82%
    13:00 +7°C° 0 mm 2 m/S 744 mmHg 83%
    14:00 +7°C° 0 mm 2 m/S 744 mmHg 83%
    15:00 +7°C° 0 mm 2 m/S 744 mmHg 84%
    16:00 +6°C° 0 mm 2 m/S 744 mmHg 86%
    17:00 +5°C° 0 mm 2 m/S 744 mmHg 88%
    18:00 +3°C° 0 mm 3 m/S 745 mmHg 90%
    19:00 +3°C° 0 mm 3 m/S 744 mmHg 91%
    20:00 +3°C° 0 mm 3 m/S 744 mmHg 92%
    21:00 +3°C° 0 mm 3 m/S 744 mmHg 92%
    22:00 +3°C° 0 mm 3 m/S 744 mmHg 93%
    23:00 +3°C° 0 mm 3 m/S 744 mmHg 93%

    übermorgen, 14 Dezember, Freitag

    Zeit Temperatur Niederschläge Wind Luftdruck Luftfeuchtigkeit
    00:00 +3°C° 0 mm 3 m/S 744 mmHg 93%
    01:00 +3°C° 0 mm 3 m/S 744 mmHg 93%
    02:00 +3°C° 0 mm 3 m/S 744 mmHg 93%
    03:00 +3°C° 0 mm 3 m/S 744 mmHg 94%
    04:00 +3°C° 0 mm 3 m/S 743 mmHg 93%
    05:00 +3°C° 0 mm 3 m/S 743 mmHg 93%
    06:00 +2°C° 0 mm 3 m/S 743 mmHg 92%
    07:00 +3°C° 0 mm 3 m/S 743 mmHg 88%
    08:00 +4°C° 0 mm 3 m/S 743 mmHg 85%
    09:00 +4°C° 0 mm 3 m/S 744 mmHg 81%
    10:00 +5°C° 0.2 mm 3 m/S 743 mmHg 81%
    11:00 +5°C° 0.2 mm 3 m/S 743 mmHg 82%
    12:00 +7°C° 0.2 mm 3 m/S 742 mmHg 83%
    13:00 +7°C° 0.6 mm 3 m/S 742 mmHg 86%
    14:00 +7°C° 0.6 mm 3 m/S 741 mmHg 90%
    15:00 +7°C° 0.6 mm 3 m/S 741 mmHg 93%
    16:00 +5°C° 0 mm 3 m/S 741 mmHg 94%
    17:00 +5°C° 0 mm 4 m/S 740 mmHg 95%
    18:00 +5°C° 0 mm 4 m/S 740 mmHg 95%
    19:00 +5°C° 0 mm 4 m/S 740 mmHg 96%
    20:00 +5°C° 0 mm 3 m/S 740 mmHg 96%
    21:00 +5°C° 0 mm 3 m/S 740 mmHg 96%
    22:00 +5°C° 0.1 mm 3 m/S 739 mmHg 96%
    23:00 +5°C° 0.1 mm 3 m/S 739 mmHg 96%

    15 Dezember, Samstag

    Zeit Temperatur Niederschläge Wind Luftdruck Luftfeuchtigkeit
    00:00 +5°C° 0.1 mm 3 m/S 738 mmHg 96%
    01:00 +5°C° 1.7 mm 4 m/S 738 mmHg 96%
    02:00 +5°C° 1.7 mm 4 m/S 737 mmHg 95%
    03:00 +5°C° 1.7 mm 4 m/S 737 mmHg 95%
    04:00 +5°C° 3.3 mm 5 m/S 736 mmHg 95%
    05:00 +5°C° 3.3 mm 5 m/S 736 mmHg 94%
    06:00 +6°C° 3.3 mm 5 m/S 736 mmHg 93%
    07:00 +5°C° 2 mm 6 m/S 736 mmHg 93%
    08:00 +5°C° 2 mm 6 m/S 736 mmHg 92%
    09:00 +5°C° 2 mm 6 m/S 736 mmHg 92%
    10:00 +5°C° 1.2 mm 6 m/S 735 mmHg 92%
    11:00 +6°C° 1.2 mm 5 m/S 735 mmHg 93%
    12:00 +6°C° 1.2 mm 5 m/S 734 mmHg 93%
    13:00 +6°C° 0.6 mm 4 m/S 734 mmHg 93%
    14:00 +6°C° 0.6 mm 4 m/S 734 mmHg 93%
    15:00 +6°C° 0.6 mm 4 m/S 734 mmHg 93%
    16:00 +6°C° 0.2 mm 4 m/S 734 mmHg 93%
    17:00 +6°C° 0.2 mm 5 m/S 735 mmHg 92%
    18:00 +6°C° 0.2 mm 5 m/S 735 mmHg 92%
    19:00 +5°C° 0.1 mm 5 m/S 735 mmHg 92%
    20:00 +5°C° 0.1 mm 5 m/S 735 mmHg 91%
    21:00 +5°C° 0.1 mm 5 m/S 736 mmHg 91%
    22:00 +5°C° 0.1 mm 5 m/S 736 mmHg 91%
    23:00 +5°C° 0.1 mm 5 m/S 736 mmHg 91%

    16 Dezember, Sonntag

    Zeit Temperatur Niederschläge Wind Luftdruck Luftfeuchtigkeit
    00:00 +5°C° 0.1 mm 5 m/S 736 mmHg 91%
    01:00 +3°C° 0.1 mm 5 m/S 737 mmHg 90%
    02:00 +3°C° 0.1 mm 6 m/S 737 mmHg 88%
    03:00 +3°C° 0.1 mm 6 m/S 738 mmHg 87%
    04:00 +2°C° 0 mm 6 m/S 738 mmHg 87%
    05:00 +2°C° 0 mm 5 m/S 739 mmHg 86%
    06:00 +2°C° 0 mm 5 m/S 739 mmHg 86%
    07:00 +3°C° 0 mm 4 m/S 740 mmHg 85%
    08:00 +3°C° 0 mm 4 m/S 740 mmHg 84%
    09:00 +3°C° 0 mm 4 m/S 741 mmHg 82%
    10:00 +4°C° 0 mm 4 m/S 741 mmHg 76%
    11:00 +5°C° 0 mm 4 m/S 740 mmHg 70%
    12:00 +5°C° 0 mm 4 m/S 740 mmHg 64%
    13:00 +6°C° 0 mm 4 m/S 740 mmHg 62%
    14:00 +6°C° 0 mm 4 m/S 740 mmHg 61%
    15:00 +6°C° 0 mm 4 m/S 740 mmHg 59%
    16:00 +5°C° 0 mm 4 m/S 741 mmHg 65%
    17:00 +4°C° 0 mm 4 m/S 741 mmHg 71%
    18:00 +3°C° 0 mm 4 m/S 741 mmHg 77%
    19:00 +1°C° 0 mm 4 m/S 741 mmHg 78%
    20:00 +1°C° 0 mm 4 m/S 741 mmHg 80%
    21:00 0°C° 0 mm 4 m/S 741 mmHg 81%
    22:00 0°C° 0 mm 4 m/S 741 mmHg 81%
    23:00 -1°C° 0 mm 4 m/S 741 mmHg 80%

    17 Dezember, Montag

    Zeit Temperatur Niederschläge Wind Luftdruck Luftfeuchtigkeit
    00:00 -1°C° 0 mm 4 m/S 741 mmHg 80%
    01:00 -1°C° 0 mm 4 m/S 741 mmHg 81%
    02:00 -2°C° 0 mm 4 m/S 740 mmHg 82%
    03:00 -2°C° 0 mm 4 m/S 740 mmHg 83%
    04:00 -2°C° 0 mm 4 m/S 741 mmHg 82%
    05:00 -2°C° 0 mm 4 m/S 741 mmHg 81%
    06:00 -4°C° 0 mm 5 m/S 741 mmHg 80%
    07:00 -2°C° 0.1 mm 5 m/S 741 mmHg 75%
    08:00 -2°C° 0.1 mm 5 m/S 742 mmHg 71%
    09:00 -3°C° 0.1 mm 6 m/S 742 mmHg 66%
    10:00 -2°C° 0 mm 6 m/S 742 mmHg 64%
    11:00 -2°C° 0 mm 6 m/S 742 mmHg 63%
    12:00 -1°C° 0 mm 6 m/S 742 mmHg 61%
    13:00 -2°C° 0 mm 6 m/S 742 mmHg 62%
    14:00 -2°C° 0 mm 6 m/S 742 mmHg 63%
    15:00 -2°C° 0 mm 6 m/S 743 mmHg 63%
    16:00 -1°C° 0 mm 5 m/S 743 mmHg 66%
    17:00 -2°C° 0 mm 5 m/S 743 mmHg 68%
    18:00 -2°C° 0 mm 5 m/S 744 mmHg 71%
    19:00 -2°C° 0 mm 5 m/S 744 mmHg 72%
    20:00 -2°C° 0 mm 5 m/S 744 mmHg 74%
    21:00 -2°C° 0 mm 5 m/S 745 mmHg 75%
    22:00 -4°C° 0 mm 5 m/S 745 mmHg 75%
    23:00 -4°C° 0 mm 5 m/S 745 mmHg 74%
    Mehr zeigen